User: anonymous   Login
Location: Camp at the Woods
(43.2055°N, 93.0905°W)
Time: 06:08:03
(UTC+00:00)
Language:

BlueWalker 3 - Orbit

View from above orbital plane
View from above orbital plane
View from above satellite
View from above satellite

Ground track
Ground track

The orbit data is extracted from the following two-line orbital elements,

1 53807U 22111AL  24149.54924218  .00004173  00000-0  17356-3 0  9995
2 53807  53.2366 284.1069 0009491  42.2437 317.9292 15.25936804 95230
Epoch (UTC): 28 May 2024 13:10:54
Eccentricity: 0.0009491
inclination: 53.2366°
perigee height: 481 km
apogee height: 494 km
right ascension of ascending node: 284.1069°
argument of perigee: 42.2437°
revolutions per day: 15.25936804
mean anomaly at epoch: 317.9292°
orbit number at epoch: 9523

The dashed part of the orbit path shows where the satellite is in the earth's shadow,  

DLR